Total_Precipitation_Accumulation
0.04 0.09 0.22 0.42 1.00 1.34 1.18 0.73 0.53 0.50 0.56 0.55 0.49 0.46 0.50 0.50 0.69 1.19 0.78 0.43 0.20 0.11 0.12 0.20 0.34 0.29 0.24 0.24 0.25 0.26 0.24 0.25 0.26 0.26 0.24 0.24 0.25 0.26 0.27 0.33 0.40 0.43 0.42 0.44 0.45 0.42 0.41 0.44 0.47
0.07 0.14 0.32 0.84 1.29 1.26 1.11 0.63 0.36 0.44 0.53 0.67 0.66 0.52 0.42 0.42 0.42 0.38 0.38 0.50 0.21 0.13 0.12 0.13 0.25 0.25 0.20 0.20 0.23 0.24 0.23 0.23 0.22 0.24 0.25 0.27 0.29 0.32 0.35 0.41 0.42 0.43 0.44 0.44 0.42 0.38 0.39 0.41 0.52
0.10 0.22 0.40 0.84 0.92 0.83 0.83 0.50 0.37 0.33 0.50 0.73 0.71 0.47 0.46 0.49 0.40 0.32 0.33 0.39 0.24 0.20 0.13 0.14 0.24 0.24 0.21 0.21 0.23 0.23 0.25 0.24 0.22 0.24 0.26 0.30 0.35 0.40 0.43 0.42 0.42 0.46 0.49 0.49 0.46 0.41 0.40 0.41 0.49
0.12 0.28 0.50 0.57 0.39 0.31 0.39 0.44 0.45 0.44 0.63 0.76 0.62 0.52 0.50 0.49 0.44 0.32 0.29 0.38 0.26 0.25 0.18 0.18 0.26 0.25 0.23 0.23 0.22 0.24 0.27 0.26 0.25 0.26 0.29 0.36 0.42 0.46 0.46 0.45 0.48 0.50 0.51 0.47 0.45 0.48 0.47 0.49 0.57
0.11 0.27 0.53 0.42 0.25 0.19 0.22 0.27 0.35 0.52 0.70 0.82 0.69 0.66 0.69 0.52 0.43 0.36 0.28 0.40 0.38 0.31 0.28 0.27 0.34 0.33 0.29 0.27 0.28 0.29 0.30 0.29 0.27 0.27 0.28 0.38 0.46 0.46 0.44 0.44 0.46 0.44 0.46 0.48 0.52 0.57 0.57 0.63 0.67
0.10 0.22 0.39 0.27 0.17 0.14 0.19 0.24 0.38 0.57 0.61 0.69 0.79 0.85 0.82 0.60 0.53 0.44 0.41 0.50 0.52 0.43 0.32 0.40 0.43 0.43 0.38 0.36 0.37 0.39 0.38 0.33 0.30 0.30 0.33 0.40 0.47 0.45 0.45 0.46 0.43 0.39 0.39 0.45 0.54 0.63 0.65 0.67 0.70
0.10 0.16 0.19 0.16 0.11 0.13 0.20 0.31 0.35 0.47 0.56 0.77 0.81 0.84 0.89 0.80 0.67 0.55 0.65 0.87 0.84 0.67 0.49 0.50 0.50 0.46 0.44 0.46 0.46 0.47 0.45 0.42 0.40 0.38 0.41 0.44 0.49 0.45 0.46 0.56 0.49 0.44 0.45 0.49 0.61 0.66 0.77 0.71 0.69
0.06 0.12 0.15 0.13 0.08 0.11 0.18 0.25 0.35 0.48 0.60 0.68 0.78 0.90 0.91 0.80 0.71 0.76 0.96 1.29 1.41 1.27 0.94 0.65 0.60 0.64 0.57 0.50 0.54 0.56 0.47 0.44 0.47 0.46 0.48 0.53 0.57 0.57 0.59 0.60 0.62 0.57 0.61 0.64 0.74 0.73 0.73 0.76 0.79
0.03 0.09 0.14 0.11 0.10 0.12 0.19 0.24 0.30 0.36 0.47 0.68 0.87 1.02 0.91 0.72 0.74 0.95 1.16 1.43 1.61 1.44 1.23 1.03 0.92 0.80 0.74 0.67 0.58 0.70 0.61 0.58 0.63 0.74 0.73 0.87 1.05 0.95 0.93 0.80 0.84 0.84 0.88 0.99 1.09 1.04 0.99 1.00 1.00
0.01 0.05 0.06 0.04 0.05 0.05 0.11 0.21 0.28 0.41 0.72 1.14 1.37 1.25 0.99 0.85 0.95 1.20 1.37 1.36 1.42 1.44 1.35 1.38 1.22 1.11 1.08 0.97 1.05 1.22 1.12 1.08 1.15 1.31 1.29 1.57 1.70 1.49 1.05 1.08 1.29 1.24 1.35 1.49 1.64 1.81 1.61 1.42 1.23
0.00 0.02 0.03 0.02 0.02 0.03 0.06 0.13 0.25 0.44 0.95 1.43 1.62 1.32 1.12 1.07 1.17 1.32 1.62 1.70 1.77 1.74 1.58 1.64 1.53 1.43 1.46 1.54 1.52 1.59 1.69 1.75 1.84 1.83 1.84 2.09 1.91 1.54 1.32 1.48 1.75 1.75 1.79 1.85 2.09 2.27 1.90 1.86 1.90
0.00 0.00 0.00 0.01 0.01 0.02 0.04 0.12 0.32 0.58 0.98 1.27 1.20 1.06 1.05 1.25 1.43 1.59 1.85 2.16 2.26 2.28 2.15 1.91 1.85 1.99 1.99 1.90 1.84 1.69 1.52 1.52 1.68 1.79 1.77 2.12 2.28 2.13 2.01 2.06 1.93 2.08 2.24 2.50 2.42 2.46 2.32 2.29 2.14
0.00 0.00 0.00 0.01 0.01 0.03 0.07 0.15 0.35 0.67 0.88 0.94 0.83 0.88 1.14 1.41 1.66 2.10 2.50 2.57 2.55 2.74 2.87 2.65 2.59 2.53 2.32 2.29 1.94 1.66 1.57 1.45 1.38 1.58 1.74 1.97 2.26 2.30 2.33 2.07 1.99 1.89 2.03 2.27 2.28 2.13 2.25 2.37 2.35
0.00 0.00 0.01 0.02 0.02 0.05 0.14 0.21 0.35 0.58 0.67 0.69 0.76 1.00 1.21 1.61 1.90 2.41 2.89 2.95 3.04 3.29 3.46 3.34 3.31 3.09 2.76 2.45 2.20 2.06 1.76 1.65 1.43 1.47 1.48 1.85 2.19 2.19 2.05 2.03 2.06 1.96 2.06 2.09 2.11 2.17 2.35 2.46 2.55
0.00 0.01 0.06 0.07 0.05 0.07 0.14 0.34 0.43 0.62 0.72 0.68 0.86 1.03 1.41 1.86 2.11 2.43 2.68 3.06 3.47 3.84 3.90 3.83 3.82 3.68 3.55 3.21 2.78 2.36 2.11 1.84 1.77 1.66 1.53 1.76 2.02 2.13 2.11 2.04 1.88 1.90 1.97 2.06 2.11 2.17 2.28 2.20 2.26
0.02 0.06 0.16 0.17 0.11 0.10 0.15 0.50 0.73 0.70 0.70 0.74 0.91 1.24 1.52 1.81 2.21 2.44 2.76 3.10 3.50 4.00 4.37 4.42 3.90 3.83 3.81 3.64 3.31 2.89 2.72 2.54 2.31 1.93 1.72 1.68 1.84 1.88 1.94 1.79 1.75 1.83 1.68 1.71 1.81 1.76 1.83 1.93 2.07
0.05 0.10 0.16 0.25 0.16 0.13 0.24 0.73 1.05 0.78 0.62 0.74 1.02 1.35 1.73 1.92 2.33 2.47 2.67 2.95 3.40 4.26 5.12 5.09 4.51 4.10 3.80 3.69 3.66 3.51 3.25 2.82 2.43 2.13 1.93 1.74 1.62 1.43 1.45 1.43 1.51 1.49 1.44 1.43 1.31 1.55 1.64 1.79 1.89
0.05 0.10 0.23 0.35 0.22 0.20 0.30 0.67 0.71 0.64 0.80 0.79 0.88 1.12 1.45 1.56 1.85 2.12 2.42 2.95 3.75 4.90 5.68 5.57 4.90 4.41 4.04 3.83 3.65 3.56 3.19 2.85 2.46 2.23 2.02 1.71 1.61 1.35 1.26 1.21 1.27 1.20 1.25 1.34 1.38 1.51 1.49 1.47 1.55
0.04 0.09 0.22 0.26 0.20 0.28 0.36 0.57 0.66 0.77 0.95 0.95 0.83 0.87 1.18 1.39 1.65 2.03 2.61 3.49 4.57 5.47 5.76 5.23 4.69 4.33 3.88 3.45 2.89 2.50 2.40 2.28 2.04 1.78 1.48 1.32 1.22 1.27 1.28 1.12 1.16 1.06 1.09 1.12 1.11 1.20 1.23 1.21 1.27
0.06 0.08 0.19 0.26 0.18 0.21 0.36 0.67 0.95 0.92 0.85 0.82 0.85 0.84 0.99 1.38 1.82 2.46 3.47 4.12 4.39 4.52 4.28 3.93 3.65 3.42 2.96 2.54 2.27 2.03 1.97 1.80 1.63 1.53 1.44 1.15 1.02 1.04 0.99 1.05 1.02 0.98 1.09 1.11 1.08 1.09 1.09 1.06 1.10
0.10 0.10 0.18 0.25 0.15 0.16 0.37 0.84 1.11 1.10 0.87 0.74 0.73 0.70 0.94 1.39 1.97 2.77 3.35 3.48 3.22 2.92 2.82 2.77 2.81 2.56 2.41 2.31 2.20 2.08 2.02 1.80 1.56 1.41 1.30 1.06 0.92 0.91 0.89 0.87 0.93 1.00 0.96 1.05 1.08 0.97 1.01 1.05 1.01
0.09 0.06 0.06 0.09 0.15 0.33 0.52 1.07 1.25 1.02 0.96 0.79 0.76 0.74 0.85 1.16 1.49 1.93 2.18 2.08 2.21 2.34 2.34 2.44 2.53 2.28 2.25 2.17 1.85 1.72 1.60 1.45 1.30 1.23 1.22 1.26 1.06 0.92 0.86 0.80 0.80 0.86 0.83 1.01 0.89 0.92 0.99 1.03 0.92
0.04 0.03 0.04 0.11 0.22 0.42 0.61 0.87 1.02 0.82 0.97 0.78 0.65 0.65 0.65 0.84 0.92 1.03 1.16 1.30 1.51 1.62 1.78 2.07 2.30 2.25 2.08 1.90 1.77 1.75 1.61 1.52 1.49 1.51 1.46 1.40 1.27 1.06 0.92 0.90 0.84 0.84 0.80 0.87 0.85 1.04 1.02 0.96 0.89
0.03 0.05 0.12 0.23 0.40 0.89 0.85 0.83 1.05 0.96 0.99 0.75 0.55 0.48 0.55 0.70 0.79 0.82 0.86 0.99 1.17 1.30 1.45 1.70 2.00 2.13 2.05 1.88 1.75 1.70 1.68 1.61 1.52 1.50 1.44 1.28 1.18 1.11 1.01 0.98 0.97 0.89 0.84 0.83 0.81 0.94 0.99 1.03 1.03
0.05 0.07 0.24 0.58 0.98 1.14 0.71 0.78 1.05 0.80 0.71 0.55 0.34 0.30 0.43 0.64 0.77 0.83 0.80 0.76 0.83 0.99 1.15 1.23 1.40 1.65 1.76 1.72 1.67 1.63 1.70 1.57 1.39 1.30 1.21 1.16 1.01 0.93 0.92 0.90 0.90 0.80 0.81 0.88 0.95 0.94 0.95 0.99 1.03
0.05 0.04 0.11 0.22 0.33 0.52 0.67 1.05 1.18 0.84 0.56 0.31 0.20 0.24 0.39 0.55 0.59 0.66 0.67 0.62 0.60 0.69 0.88 0.99 1.17 1.34 1.53 1.53 1.49 1.45 1.49 1.42 1.32 1.31 1.09 0.99 0.95 0.90 0.91 0.91 0.84 0.81 0.84 0.85 1.00 0.88 0.83 0.88 0.90
0.05 0.03 0.04 0.07 0.12 0.32 0.67 0.96 0.92 0.73 0.51 0.32 0.23 0.23 0.25 0.33 0.40 0.51 0.59 0.63 0.62 0.62 0.74 0.85 1.05 1.22 1.39 1.50 1.51 1.42 1.42 1.42 1.39 1.32 1.14 0.99 1.04 0.99 1.05 1.00 0.90 0.90 0.96 0.99 1.04 0.91 0.87 0.94 0.88
0.05 0.04 0.04 0.05 0.11 0.24 0.51 0.88 1.05 0.88 0.59 0.35 0.30 0.29 0.34 0.36 0.32 0.44 0.56 0.59 0.53 0.46 0.53 0.68 0.84 1.06 1.20 1.36 1.39 1.29 1.44 1.41 1.39 1.31 1.19 1.05 1.01 0.99 1.08 1.05 0.95 0.93 0.96 1.00 1.05 0.95 0.97 0.99 0.97
0.07 0.06 0.06 0.05 0.08 0.14 0.35 0.57 0.52 0.47 0.38 0.32 0.35 0.32 0.28 0.32 0.30 0.39 0.45 0.49 0.45 0.38 0.40 0.49 0.66 0.83 0.93 1.03 1.15 1.15 1.22 1.19 1.18 1.20 1.19 1.13 1.09 1.05 1.03 1.03 1.01 0.97 1.00 1.06 1.10 1.05 1.04 0.99 1.02
0.09 0.09 0.09 0.08 0.08 0.09 0.17 0.35 0.29 0.31 0.32 0.30 0.39 0.40 0.32 0.31 0.39 0.35 0.32 0.40 0.49 0.39 0.33 0.39 0.52 0.66 0.74 0.81 0.85 0.91 0.99 1.03 1.00 0.99 1.08 1.15 1.10 1.03 1.05 1.06 1.00 0.90 0.95 1.08 1.12 1.06 1.08 1.07 1.02